User: anonymous   Login
Location: Lower Kingswood
(51.2667°N, 0.2167°W)
Time: 21:52:24
(UTC+00:00)
Language:

Cosmos 1805 Rocket - Orbit

View from above orbital plane
View from above orbital plane
View from above satellite
View from above satellite

Ground track
Ground track

The orbit data is extracted from the following two-line orbital elements,

1 17192U 86097B   24055.58785208  .00000699  00000-0  79999-4 0  9990
2 17192  82.5065 122.5199 0015748 329.3069 143.8151 14.84517251989898
Epoch (UTC): 24 February 2024 14:06:30
Eccentricity: 0.0015748
inclination: 82.5065°
perigee height: 604 km
apogee height: 626 km
right ascension of ascending node: 122.5199°
argument of perigee: 329.3069°
revolutions per day: 14.84517251
mean anomaly at epoch: 143.8151°
orbit number at epoch: 98989

The dashed part of the orbit path shows where the satellite is in the earth's shadow,  

DLR